356  
ASUS44 KMOB 150112  
RWRMOB  
REGIONAL WEATHER ROUNDUP  
NATIONAL WEATHER SERVICE MOBILE AL  
800 PM CDT TUE AUG 14 2018  
 
NOTE: "FAIR" INDICATES FEW OR NO CLOUDS BELOW 12,000 FEET WITH NO  
SIGNIFICANT WEATHER AND/OR S TO VISIBILITY
.  
 
* THESE STATIONS ARE PART OF THE UNIVERSITY OF SOUTH ALABAMA  
MESONET AND ARE NOT UNDER NWS OR FAA QUALITY CONTROL.
 
 
ALZ061>064-150200-  
COASTAL ALABAMA  
 
CITY SKY/WX TMP DP RH WIND PRES REMARKS
 
MOBILE REG APT MOCLDY 78 76 93 S10 30.03R THUNDER  
BROOKLEY FIELD CLOUDY 78 76 93 VRB6 30.02R THUNDER  
USA CAMPUS* N/A 77 77 100 SW2 N/A  
DOG RIVER* N/A 75 73 94 SW5 N/A  
 
 
CITY SKY/WX TMP DP RH WIND PRES REMARKS
 
GULF SHORES FAIR 76 75 98 CALM 30.00R  
 

 
 
ALZ051>060-150200-  
INTERIOR SOUTHWEST AND SOUTH CENTRAL ALABAMA  
 
CITY SKY/WX TMP DP RH WIND PRES REMARKS
 
GREENVILLE FAIR 76 72 87 S3 30.01S FOG  
EVERGREEN LGT RAIN 77 74 90 CALM 30.03R  
ATMORE* N/A N/A N/A N/A E8 30.73R  
ANDALUSIA/OPP FAIR 81 74 79 CALM 30.03R  
ANDALUSIA* N/A 77 73 88 CALM 30.03R  
FLORALA APT FAIR 76 73 91 CALM 30.05R  
FLORALA* NOT AVBL  
 

 
 
FLZ001>006-150200-  
WESTERN FLORIDA PANHANDLE  
 
CITY SKY/WX TMP DP RH WIND PRES REMARKS
 
PENSACOLA MOCLDY 79 73 82 NE8G21 30.02R  
NAS PENSACOLA NOT AVBL  
MILTON LGT RAIN 75 75 100 CALM 30.03S FOG  
WHTNG S FIELD LGT RAIN 76 76 100 E3 30.03R  
 
 
CITY SKY/WX TMP DP RH WIND PRES REMARKS
 
JAY* N/A 73 73 100 SE5 N/A  
DUKE FIELD MOCLDY 76 71 83 NW3 30.02R  
CRESTVIEW MOCLDY 78 70 76 W7 30.04R  
VALPARAISO PTCLDY 79 73 83 N3 30.00R  
DESTIN FAIR 85 74 69 VRB3 30.00R  
 

 
 
MSZ076-079-150200-  
INTERIOR SOUTHEAST MISSISSIPPI  
 
CITY SKY/WX TMP DP RH WIND PRES REMARKS
 
LEAKESVILLE* NOT AVBL  
AGRICOLA* N/A 82 75 78 S2 30.00R  
 

 
 
MARINE OBSERVATIONS  
 
STATION/POSITION TIME TEMP WIND PRES WAVE
 
AIR SEA DIR/SP/G HT/PER  
(UTC) (F) (DEG/KT/KT) (MB) (FT/S)  
PETIT BOIS ISLND 0036 79 120/ 9/ 12 1016.8R  
GRAND BAY 2345 88 230/ 9 1016.0S  
KATRINA CUT 0030 210/ 9 1016.3R  
CEDAR POINT 0030 180/ 13 1015.9R  
E DAUPHIN ISLAND 0000 76 60/ 5/ 7 1017.0R  
MIDDLE BAY LIGHT 0030 80 170/ 14 1015.2S  
USCG MOBILE BAY 0048 77 87 250/ 7/ 11 1016.6R  
STATE DOCKS 0036 80 87 1015.7R  
WEEKS BAY 2345 1016.0R  
FORT MORGAN 0048 78 240/ 11/ 12 1016.0F  
12 S ORANGE BCH 0050 85 240/ 10/ 12 1015.9S 1  
PENSACOLA BAY 0036 85 87 320/ 2/ 4 1015.9F  
64 S DAUPHIN ISL 0050 87 260/ 4/ 6 1015.9F 1  
 

 
 
SELECTED LOCATIONS ACROSS THE REGION  
 
CITY SKY/WX TMP DP RH WIND PRES REMARKS
 
NEW ORLEANS MOCLDY 84 76 76 S5 29.99R  
GULFPORT FAIR 87 75 67 CALM 29.97S HX 96  
PASCAGOULA AP CLOUDY 82 70 66 E22G30 30.03R THUNDER  
PASCAGOULA* N/A 81 73 78 N6 30.04R  
HATTIESBURG FAIR 84 76 76 CALM 29.99R  
LAUREL FAIR 80 74 81 CALM 30.00S  
MERIDIAN FAIR 83 78 85 CALM 29.99S  
JACKSON MOCLDY 83 72 69 CALM 29.99S  
MONTGOMERY FAIR 76 74 93 CALM 30.01S  
TROY FAIR 75 74 96 SW3 30.02S  
ASHFORD* N/A 77 73 88 CALM 30.03R  
DOTHAN FAIR 75 72 90 CALM 30.05R  
PANAMA CITY FAIR 77 72 84 NE3 30.00R  
 

 
 
 
 
CLICK HERE TO GO TO PREVIOUS BULLETINS.

The Nexlab AL Page
The Nexlab FL Page
The Nexlab MS Page Main Text Page